Weather History for Florence, SC

Change the Weather History Date:

Saturday, November 30, 2013

  Actual Average Record
Temperature  
Mean Temperature 43 °F 51 °F  
Max Temperature 55 °F 62 °F 81 °F (1991)
Min Temperature 31 °F 40 °F 21 °F (1955)
Degree Days  
Heating Degree Days 22 14  
Month to date heating degree days 388 305  
Since 1 July heating degree days 470 422  
Cooling Degree Days 0 0  
Month to date cooling degree days 16 17  
Year to date cooling degree days 2046 2059  
Moisture  
Dew Point 32 °F    
Average Humidity 62    
Maximum Humidity 78    
Minimum Humidity 46    
Precipitation  
Precipitation T in 0.09 in 2.14 in (1985)
Month to date precipitation 2.17 2.67  
Year to date precipitation 50.35 39.90  
Sea Level Pressure  
Sea Level Pressure 30.49 in    
Wind  
Wind Speed 8 mph (NNE)    
Max Wind Speed 16 mph    
Max Gust Speed 20 mph    
Visibility 10 miles    
Events Rain    
T = Trace of Precipitation, MM = Missing Value Source: NWS Daily Summary

Daily Weather History Graph

Daily Weather History Graph

Search for Another Location

Airport:

Trip Planner

Search our weather history database for the weather conditions in past years. The results will help you decide how hot, cold, wet, or windy it might be!

Date:

Astronomy

Nov. 30, 2013 Rise Set
Actual Time 7:05 AM EST 5:09 PM EST
Civil Twilight 6:38 AM EST 5:36 PM EST
Nautical Twilight 6:07 AM EST 6:07 PM EST
Astronomical Twilight 5:37 AM EST 6:37 PM EST
Moon 4:20 AM EST (11/30) 3:27 PM EST (11/30)
Length of Visible Light 10h 58m
Length of Day
10h 03m
Waning Crescent, 7% of the Moon is Illuminated
Nov 30
Waning Crescent
Dec 2
New
Dec 9
First Quarter
Dec 17
Full
Dec 25
Last Quarter

Hourly Weather History & Observations

Time (EST) Temp. Windchill Dew Point Humidity Pressure Visibility Wind Dir Wind Speed Gust Speed Precip Events Conditions
12:53 AM 36.0 °F 30.3 °F 27.0 °F 70% 30.57 in 10.0 mi NNE 6.9 mph - N/A   Clear
1:53 AM 35.1 °F 29.3 °F 27.0 °F 72% 30.56 in 10.0 mi NE 6.9 mph - N/A   Clear
2:53 AM 35.1 °F 29.3 °F 27.0 °F 72% 30.57 in 10.0 mi NE 6.9 mph - N/A   Clear
3:53 AM 34.0 °F 26.6 °F 26.1 °F 73% 30.56 in 10.0 mi NNE 9.2 mph - N/A   Clear
4:53 AM 33.1 °F 26.9 °F 26.1 °F 75% 30.56 in 10.0 mi NNE 6.9 mph - N/A   Clear
5:53 AM 30.9 °F 25.2 °F 25.0 °F 79% 30.57 in 10.0 mi NNE 5.8 mph - N/A   Clear
6:53 AM 30.9 °F 23.5 °F 25.0 °F 79% 30.58 in 10.0 mi North 8.1 mph - N/A   Clear
7:53 AM 33.1 °F 24.4 °F 26.1 °F 75% 30.59 in 10.0 mi North 11.5 mph - N/A   Clear
8:53 AM 37.0 °F 29.8 °F 27.0 °F 67% 30.58 in 10.0 mi NNE 10.4 mph - N/A   Clear
9:53 AM 42.1 °F 34.9 °F 28.9 °F 60% 30.59 in 10.0 mi NNE 13.8 mph 18.4 mph N/A   Clear
10:53 AM 46.0 °F 40.2 °F 30.9 °F 56% 30.55 in 10.0 mi NE 12.7 mph - N/A   Clear
11:53 AM 50.0 °F - 32.0 °F 50% 30.53 in 10.0 mi NE 10.4 mph - N/A   Clear
12:53 PM 52.0 °F - 33.1 °F 49% 30.49 in 10.0 mi Variable 6.9 mph - N/A   Clear
1:53 PM 54.0 °F - 34.0 °F 47% 30.47 in 10.0 mi North 9.2 mph - N/A   Clear
2:53 PM 53.1 °F - 34.0 °F 48% 30.44 in 10.0 mi NNE 6.9 mph - N/A   Mostly Cloudy
3:53 PM 53.1 °F - 34.0 °F 48% 30.43 in 10.0 mi NNE 9.2 mph - N/A   Mostly Cloudy
4:53 PM 51.1 °F - 35.1 °F 54% 30.43 in 10.0 mi NE 5.8 mph - 0.00 in Rain Light Rain
5:53 PM 48.0 °F - 39.0 °F 71% 30.42 in 10.0 mi NE 4.6 mph - N/A   Overcast
6:53 PM 48.9 °F - 36.0 °F 61% 30.42 in 10.0 mi NNE 4.6 mph - N/A   Overcast
7:53 PM 48.0 °F - 37.9 °F 68% 30.41 in 10.0 mi NNE 4.6 mph - N/A   Overcast
8:53 PM 48.0 °F - 37.9 °F 68% 30.39 in 10.0 mi NNE 5.8 mph - 0.00 in   Overcast
9:53 PM 46.9 °F - 37.9 °F 71% 30.38 in 10.0 mi NNE 3.5 mph - N/A   Overcast
10:53 PM 46.9 °F - 39.0 °F 74% 30.36 in 10.0 mi North 4.6 mph - N/A   Overcast
11:53 PM 46.9 °F - 37.9 °F 71% 30.35 in 10.0 mi NNE 6.9 mph - N/A   Overcast